Okinawa, Japan

10:58 PM JST on November 23, 2017 (GMT +0900)
Kadena Air Base

Weather History for RODN - September, 2013

Change the Weather History Date:

Tuesday, September 17, 2013

  Actual Average Record
Temperature  
Mean Temperature 81 °F -  
Max Temperature 89 °F 82 °F 91 °F (1999)
Min Temperature 73 °F 71 °F 68 °F (2000)
Cooling Degree Days 16    
Growing Degree Days 31 (Base 50)    
Moisture  
Dew Point 79 °F    
Average Humidity 87    
Maximum Humidity 100    
Minimum Humidity 67    
Precipitation  
Precipitation 0.00 in - - ()
Sea Level Pressure  
Sea Level Pressure 29.81 in    
Wind  
Wind Speed 16 mph ()    
Max Wind Speed 28 mph    
Max Gust Speed 34 mph    
Visibility 9.9 miles    
Events Rain    
Averages and records for this station are not official NWS values.
T = Trace of Precipitation, MM = Missing Value Source: Averaged Metar Reports

Daily Weather History Graph

Daily Weather History Graph

Search for Another Location

Airport or City:

Trip Planner

Search our weather history database for the weather conditions in past years. The results will help you decide how hot, cold, wet, or windy it might be!

Date:

Astronomy

Sep. 17, 2013 Rise Set
Actual Time 6:15 AM JST 6:31 PM JST
Civil Twilight 5:52 AM JST 6:54 PM JST
Nautical Twilight 5:25 AM JST 7:21 PM JST
Astronomical Twilight 4:57 AM JST 7:48 PM JST
Moon 4:47 PM JST (9/17) 3:40 AM JST (9/17)
Length of Visible Light 13h 02m
Length of Day
12h 16m
Waxing Gibbous, 93% of the Moon is Illuminated
Sep 17
Waxing Gibbous
Sep 19
Full
Sep 27
Last Quarter
Oct 5
New
Oct 12
First Quarter

Hourly Weather History & Observations

Time (JST) Temp. Heat Index Dew Point Humidity Pressure Visibility Wind Dir Wind Speed Gust Speed Precip Events Conditions
12:58 AM 77.0 °F - 69.3 °F 77% 29.81 in 10.0 mi NNE 6.9 mph - N/A   Clear
1:58 AM 75.4 °F - 71.1 °F 86% 29.80 in 10.0 mi NNE 6.9 mph - N/A   Clear
2:58 AM 73.0 °F - 72.0 °F 96% 29.79 in 10.0 mi NE 5.8 mph - N/A   Clear
3:58 AM 76.6 °F - 74.1 °F 92% 29.79 in 10.0 mi NNE 8.1 mph - N/A   Clear
4:59 AM 76.5 °F - 75.9 °F 98% 29.80 in 10.0 mi NNE 6.9 mph - N/A   Partly Cloudy
5:59 AM 77.7 °F - 77.2 °F 98% 29.80 in 10.0 mi NNE 9.2 mph - N/A   Clear
6:59 AM 77.9 °F - 75.0 °F 91% 29.81 in 10.0 mi NE 11.5 mph - N/A   Clear
7:58 AM 80.8 °F 85.8 °F 73.6 °F 79% 29.83 in 10.0 mi NE 17.3 mph - N/A   Scattered Clouds
8:58 AM 84.4 °F 92.0 °F 74.3 °F 72% 29.83 in 10.0 mi NE 17.3 mph - N/A   Clear
9:58 AM 87.3 °F 96.8 °F 75.2 °F 67% 29.84 in 10.0 mi ENE 18.4 mph - N/A   Scattered Clouds
10:58 AM 88.3 °F 99.5 °F 75.9 °F 67% 29.84 in 10.0 mi ENE 18.4 mph 27.6 mph N/A   Partly Cloudy
11:58 AM 89.4 °F 102.9 °F 77.5 °F 68% 29.82 in 10.0 mi ENE 21.9 mph - N/A   Clear
12:58 PM 89.6 °F 104.7 °F 78.8 °F 70% 29.82 in 10.0 mi ENE 19.6 mph 32.2 mph N/A   Partly Cloudy
1:58 PM 89.2 °F 105.0 °F 79.0 °F 72% 29.80 in 10.0 mi ENE 21.9 mph 29.9 mph N/A   Clear
2:58 PM 89.2 °F 105.6 °F 79.5 °F 73% 29.78 in 10.0 mi ENE 24.2 mph 31.1 mph N/A   Clear
3:58 PM 88.2 °F 104.8 °F 80.2 °F 77% 29.78 in 10.0 mi ENE 24.2 mph 31.1 mph N/A   Clear
4:31 PM 87.8 °F 104.9 °F 80.6 °F 79% 29.76 in 10.0 mi ENE 27.6 mph 29.9 mph N/A   Mostly Cloudy
4:34 PM 87.8 °F 104.9 °F 80.6 °F 79% 29.76 in 9.0 mi ENE 23.0 mph 34.5 mph N/A Rain Light Rain
4:42 PM 82.4 °F 96.1 °F 82.4 °F 100% 29.76 in 8.0 mi ENE 19.6 mph 34.5 mph N/A Rain Light Rain
4:45 PM 82.4 °F 96.1 °F 82.4 °F 100% 29.76 in 9.0 mi ENE 18.4 mph 29.9 mph N/A Rain Light Rain
4:47 PM 82.4 °F 96.1 °F 82.4 °F 100% 29.76 in 10.0 mi ENE 16.1 mph 29.9 mph N/A   Mostly Cloudy
4:58 PM 83.7 °F 97.7 °F 81.0 °F 92% 29.78 in 10.0 mi ENE 23.0 mph 29.9 mph 0.00 in   Scattered Clouds
5:58 PM 84.6 °F 97.7 °F 79.7 °F 85% 29.79 in 10.0 mi ENE 21.9 mph 27.6 mph N/A   Scattered Clouds
6:33 PM 84.2 °F 98.3 °F 80.6 °F 89% 29.77 in 10.0 mi ENE 24.2 mph 29.9 mph N/A   Mostly Cloudy
6:37 PM 84.2 °F 98.3 °F 80.6 °F 89% 29.78 in 10.0 mi ENE 20.7 mph 29.9 mph N/A   Mostly Cloudy
6:39 PM 84.2 °F 98.3 °F 80.6 °F 89% 29.78 in 10.0 mi ENE 18.4 mph 29.9 mph N/A   Mostly Cloudy
6:42 PM 84.2 °F 96.1 °F 78.8 °F 84% 29.78 in 10.0 mi ENE 23.0 mph 29.9 mph N/A   Mostly Cloudy
6:45 PM 82.4 °F 92.4 °F 78.8 °F 89% 29.78 in 10.0 mi ENE 21.9 mph 28.8 mph N/A   Mostly Cloudy
6:58 PM 83.1 °F 94.3 °F 79.3 °F 88% 29.80 in 10.0 mi ENE 21.9 mph 29.9 mph N/A   Scattered Clouds
7:10 PM 82.4 °F 92.4 °F 78.8 °F 89% 29.79 in 10.0 mi ENE 21.9 mph 29.9 mph N/A   Mostly Cloudy
7:12 PM 82.4 °F 92.4 °F 78.8 °F 89% 29.79 in 10.0 mi ENE 20.7 mph 29.9 mph N/A   Scattered Clouds
7:20 PM 84.2 °F 96.1 °F 78.8 °F 84% 29.79 in 10.0 mi ENE 17.3 mph 29.9 mph N/A   Mostly Cloudy
7:27 PM 82.4 °F 92.4 °F 78.8 °F 89% 29.79 in 10.0 mi ENE 20.7 mph 28.8 mph N/A   Mostly Cloudy
7:58 PM 83.1 °F 94.7 °F 79.7 °F 89% 29.81 in 10.0 mi ENE 24.2 mph 26.5 mph N/A   Mostly Cloudy
8:43 PM 82.4 °F 92.4 °F 78.8 °F 89% 29.81 in 10.0 mi ENE 23.0 mph - N/A Rain Light Rain
8:47 PM 82.4 °F 94.0 °F 80.6 °F 94% 29.81 in 10.0 mi ENE 20.7 mph - N/A Rain Light Rain
8:54 PM 82.4 °F 94.0 °F 80.6 °F 94% 29.82 in 10.0 mi ENE 19.6 mph 28.8 mph N/A Rain Light Rain
8:55 PM 82.4 °F 94.0 °F 80.6 °F 94% 29.82 in 10.0 mi ENE 17.3 mph 25.3 mph N/A   Mostly Cloudy
8:58 PM 81.9 °F 91.9 °F 79.7 °F 93% 29.84 in 10.0 mi ENE 20.7 mph 25.3 mph 0.00 in   Mostly Cloudy
8:59 PM 82.4 °F 94.0 °F 80.6 °F 94% 29.82 in 10.0 mi ENE 20.7 mph 25.3 mph N/A   Mostly Cloudy
9:38 PM 82.4 °F 92.4 °F 78.8 °F 89% 29.83 in 10.0 mi ENE 24.2 mph 29.9 mph N/A   Mostly Cloudy
9:43 PM 82.4 °F 92.4 °F 78.8 °F 89% 29.83 in 10.0 mi ENE 18.4 mph 28.8 mph N/A   Mostly Cloudy
9:45 PM 82.4 °F 94.0 °F 80.6 °F 94% 29.83 in 10.0 mi ENE 18.4 mph 28.8 mph N/A   Mostly Cloudy
9:46 PM 82.4 °F 94.0 °F 80.6 °F 94% 29.83 in 10.0 mi ENE 20.7 mph 28.8 mph N/A   Mostly Cloudy
9:47 PM 82.4 °F 94.0 °F 80.6 °F 94% 29.83 in 10.0 mi ENE 19.6 mph 28.8 mph N/A   Overcast
9:58 PM 83.1 °F 94.7 °F 79.5 °F 89% 29.85 in 10.0 mi ENE 20.7 mph 29.9 mph N/A   Overcast
10:18 PM 84.2 °F 96.1 °F 78.8 °F 84% 29.83 in 10.0 mi ENE 24.2 mph 27.6 mph N/A   Overcast
10:21 PM 84.2 °F 96.1 °F 78.8 °F 84% 29.83 in 10.0 mi ENE 21.9 mph 26.5 mph N/A   Mostly Cloudy
10:22 PM 84.2 °F 98.3 °F 80.6 °F 89% 29.83 in 10.0 mi ENE 20.7 mph 26.5 mph N/A   Mostly Cloudy
10:27 PM 82.4 °F 94.0 °F 80.6 °F 94% 29.83 in 10.0 mi ENE 18.4 mph 26.5 mph N/A Rain Light Rain
10:37 PM 82.4 °F 92.4 °F 78.8 °F 89% 29.83 in 10.0 mi ENE 19.6 mph 27.6 mph N/A   Overcast
10:42 PM 82.4 °F 92.4 °F 78.8 °F 89% 29.83 in 10.0 mi ENE 21.9 mph 32.2 mph N/A   Mostly Cloudy
10:55 PM 82.4 °F 92.4 °F 78.8 °F 89% 29.83 in 10.0 mi ENE 16.1 mph 26.5 mph N/A   Mostly Cloudy
10:58 PM 83.1 °F 94.3 °F 79.3 °F 88% 29.85 in 10.0 mi ENE 18.4 mph 23.0 mph 0.00 in   Mostly Cloudy
11:01 PM 82.4 °F 92.4 °F 78.8 °F 89% 29.83 in 10.0 mi ENE 19.6 mph 23.0 mph N/A   Mostly Cloudy
11:26 PM 82.4 °F 92.4 °F 78.8 °F 89% 29.83 in 10.0 mi ENE 21.9 mph 26.5 mph N/A   Overcast
11:44 PM 82.4 °F 92.4 °F 78.8 °F 89% 29.83 in 10.0 mi ENE 18.4 mph - N/A   Overcast
11:49 PM 82.4 °F 92.4 °F 78.8 °F 89% 29.83 in 10.0 mi ENE 19.6 mph - N/A   Overcast
11:50 PM 82.4 °F 92.4 °F 78.8 °F 89% 29.83 in 10.0 mi ENE 18.4 mph 25.3 mph N/A   Overcast
11:52 PM 82.4 °F 92.4 °F 78.8 °F 89% 29.83 in 10.0 mi ENE 20.7 mph 28.8 mph N/A   Overcast
11:58 PM 83.1 °F 94.7 °F 79.7 °F 89% 29.85 in 10.0 mi NE 17.3 mph 28.8 mph N/A   Overcast
11:59 PM 82.4 °F 94.0 °F 80.6 °F 94% 29.83 in 10.0 mi ENE 18.4 mph 28.8 mph N/A Rain Light Rain